Location: Michelbach Markt
(48.1000°N, 15.7500°E)
Time: 04:13:31
(UTC+01:00)

X-37B - Visible Passes

Search period start: 01 December 2023 00:00
Search period end: 11 December 2023 00:00
Orbit: 277 x 277 km, 45.0° (Epoch: 01 November)

Date Brightness Start Highest point End Pass type
(mag) Time Alt. Az. Time Alt. Az. Time Alt. Az.
01 Dec 2.3 18:04:12 10° SW 18:05:26 20° SSW 18:05:26 20° SSW visible
02 Dec 2.0 18:04:37 10° SW 18:06:05 24° SSW 18:06:05 24° SSW visible
03 Dec 1.8 18:05:08 10° WSW 18:06:44 28° SW 18:06:44 28° SW visible
04 Dec 1.8 18:05:44 10° WSW 18:07:22 30° SW 18:07:22 30° SW visible
05 Dec 1.8 18:06:21 10° WSW 18:08:01 30° SW 18:08:01 30° SW visible
06 Dec 1.9 18:07:02 10° WSW 18:08:42 28° SW 18:08:42 28° SW visible
07 Dec 1.1 16:33:38 10° WSW 16:35:58 38° S 16:38:18 10° ESE visible
07 Dec 2.1 18:07:45 10° WSW 18:09:27 24° SW 18:09:27 24° SW visible
08 Dec 1.2 16:34:16 10° WSW 16:36:35 38° S 16:38:55 10° ESE visible
08 Dec 2.4 18:08:34 10° WSW 18:10:18 19° SSW 18:10:18 19° SSW visible
09 Dec 1.5 16:34:54 10° WSW 16:37:12 34° S 16:39:29 10° ESE visible
09 Dec 2.8 18:09:36 10° WSW 18:10:59 14° SSW 18:11:17 13° SSW visible
10 Dec 1.9 16:35:37 10° WSW 16:37:48 28° SSW 16:40:00 10° SE visible
